TimeMDT,TemperatureF,Dew PointF,Humidity,Sea Level PressureIn,VisibilityMPH,Wind Direction,Wind SpeedMPH,Gust SpeedMPH,PrecipitationIn,Events,Conditions,WindDirDegrees,DateUTC
12:53 AM,77.0,52.0,42,29.73,10.0,South,13.8,31.1,N/A,,Clear,170,2013-08-28 06:53:00
1:53 AM,75.9,50.0,40,29.73,10.0,South,17.3,24.2,N/A,,Clear,170,2013-08-28 07:53:00
2:53 AM,75.0,48.9,40,29.76,10.0,South,6.9,-,N/A,,Clear,170,2013-08-28 08:53:00
3:53 AM,73.9,48.9,41,29.77,10.0,NNW,4.6,-,N/A,,Mostly Cloudy,330,2013-08-28 09:53:00
4:53 AM,75.9,48.9,38,29.76,10.0,South,11.5,-,N/A,,Overcast,180,2013-08-28 10:53:00
5:53 AM,75.0,50.0,41,29.78,10.0,South,9.2,-,0.00,,Mostly Cloudy,180,2013-08-28 11:53:00
6:53 AM,73.0,51.1,46,29.82,10.0,South,8.1,-,N/A,,Overcast,170,2013-08-28 12:53:00
7:53 AM,71.1,53.1,53,29.84,10.0,South,8.1,-,N/A,,Clear,170,2013-08-28 13:53:00
8:53 AM,77.0,51.1,40,29.86,10.0,South,11.5,17.3,N/A,,Clear,170,2013-08-28 14:53:00
9:53 AM,81.0,52.0,36,29.87,10.0,South,9.2,-,N/A,,Partly Cloudy,180,2013-08-28 15:53:00
10:53 AM,82.9,52.0,34,29.87,10.0,South,10.4,18.4,N/A,,Clear,180,2013-08-28 16:53:00
11:53 AM,79.0,54.0,42,29.89,10.0,South,18.4,32.2,0.00,Rain,Light Rain,180,2013-08-28 17:53:00
12:53 PM,84.0,53.1,34,29.88,10.0,South,13.8,21.9,0.00,,Mostly Cloudy,190,2013-08-28 18:53:00
1:53 PM,87.1,46.9,25,29.86,10.0,Variable,6.9,-,N/A,,Clear,0,2013-08-28 19:53:00
2:53 PM,90.0,45.0,21,29.85,10.0,Calm,Calm,-,N/A,,Clear,0,2013-08-28 20:53:00
3:53 PM,88.0,54.0,31,29.84,10.0,ENE,9.2,-,0.00,Rain,Light Rain,60,2013-08-28 21:53:00
4:53 PM,84.9,52.0,32,29.84,10.0,NE,9.2,-,0.00,,Clear,40,2013-08-28 22:53:00
5:53 PM,88.0,53.1,30,29.83,10.0,ENE,6.9,-,N/A,,Clear,60,2013-08-28 23:53:00
6:53 PM,82.0,55.9,41,29.84,10.0,East,6.9,-,N/A,,Clear,80,2013-08-29 00:53:00
7:53 PM,81.0,55.0,41,29.85,10.0,ESE,18.4,24.2,0.00,Rain-Thunderstorm,Light Rain,120,2013-08-29 01:53:00
8:13 PM,78.8,53.6,42,30.01,10.0,SE,13.8,-,0.00,,Scattered Clouds,130,2013-08-29 02:13:00
8:53 PM,70.0,52.0,53,29.86,10.0,SSE,10.4,-,0.00,,Clear,150,2013-08-29 02:53:00
9:53 PM,72.0,52.0,49,29.87,10.0,SSE,9.2,-,N/A,,Clear,160,2013-08-29 03:53:00
10:53 PM,77.0,48.9,37,29.86,10.0,South,8.1,-,N/A,,Mostly Cloudy,170,2013-08-29 04:53:00
11:53 PM,78.1,50.0,37,29.85,10.0,SSE,16.1,-,N/A,,Clear,160,2013-08-29 05:53:00